�_�ʐ�͌���@�Y���u�C�̈ړ���,,,,,,,,,,,,
�@,Time,Time int.,,Lat.,,Long.,,Distance,,Direction,Speed,
Date(yy/mm/dd),(hh:mm),(hour),(min),(deg),(min),(deg),(min),(miles),(meter),(deg),(m/s),(knots)
2004/5/26,9:20,,,36,45.966,137,13.53,,,,,
2004/5/26,9:25,0,5,36,46.056,137,13.59,0.11,200.32,33.7,0.67,1.3
2004/5/26,9:30,0,5,36,46.098,137,13.638,0.06,118.12,48.8,0.39,0.77
2004/5/26,9:35,0,5,36,46.128,137,13.68,0.05,95.59,54.5,0.32,0.62
2004/5/26,9:40,0,5,36,46.164,137,13.734,0.06,120.19,56.3,0.4,0.78
2004/5/26,9:45,0,5,36,46.188,137,13.806,0.08,140.56,71.6,0.47,0.91
2004/5/26,9:50,0,5,36,46.194,137,13.884,0.08,144.88,85.6,0.48,0.94
2004/5/26,9:55,0,5,36,46.206,137,13.956,0.07,135.18,80.5,0.45,0.88
2004/5/26,10:00,0,5,36,46.188,137,14.028,0.07,137.45,104,0.46,0.89
2004/5/26,10:05,0,5,36,46.194,137,14.1,0.07,133.81,85.2,0.45,0.87
2004/5/26,10:10,0,5,36,46.194,137,14.166,0.07,122.23,90,0.41,0.79
2004/5/26,10:15,0,5,36,46.2,137,14.238,0.07,133.81,85.2,0.45,0.87
2004/5/26,10:20,0,5,36,46.206,137,14.286,0.05,89.59,82.9,0.3,0.58
2004/5/26,10:25,0,5,36,46.212,137,14.334,0.05,89.59,82.9,0.3,0.58
2004/5/26,10:30,0,5,36,46.242,137,14.388,0.06,114.41,60.9,0.38,0.74
2004/5/26,10:35,0,5,36,46.242,137,14.43,0.04,77.78,90,0.26,0.5
2004/5/26,10:40,0,5,36,46.254,137,14.46,0.03,59.84,68.2,0.2,0.39
2004/5/26,10:45,0,5,36,46.266,137,14.478,0.02,40.06,56.3,0.13,0.26
2004/5/26,10:50,0,5,36,46.284,137,14.514,0.04,74.54,63.4,0.25,0.48
2004/5/26,10:55,0,5,36,46.296,137,14.538,0.03,49.69,63.4,0.17,0.32
2004/5/26,11:00,0,5,36,46.326,137,14.574,0.05,86.79,50.2,0.29,0.56
2004/5/26,11:05,0,5,36,46.338,137,14.598,0.03,49.69,63.4,0.17,0.32
2004/5/26,11:10,0,5,36,46.368,137,14.634,0.05,86.79,50.2,0.29,0.56
2004/5/26,11:15,0,5,36,46.392,137,14.664,0.04,71.15,51.3,0.24,0.46
2004/5/26,11:25,0,10,36,46.422,137,14.718,0.06,114.41,60.9,0.19,0.37


�A,Time,Time int.,,Lat.,,Long.,,Distance,,Direction,Speed,
Date(yy/mm/dd),(hh:mm),(hour),(min),(deg),(min),(deg),(min),(miles),(meter),(deg),(m/s),(knots)
2004/5/26,11:45,,,36,46.068,137,13.116,,,,,
2004/5/26,11:50,0,5,36,46.056,137,13.128,0.02,31.43,135,0.1,0.2
2004/5/26,11:55,0,5,36,46.074,137,13.14,0.02,40.06,33.7,0.13,0.26
2004/5/26,12:00,0,5,36,46.092,137,13.146,0.02,35.14,18.4,0.12,0.23
2004/5/26,12:05,0,5,36,46.116,137,13.17,0.03,62.86,45,0.21,0.41
2004/5/26,12:20,0,15,36,46.152,137,13.2,0.05,86.79,39.8,0.1,0.19
2004/5/26,12:25,0,5,36,46.158,137,13.212,0.01,24.85,63.4,0.08,0.16
2004/5/26,12:30,0,5,36,46.17,137,13.224,0.02,31.43,45,0.1,0.2
2004/5/26,12:35,0,5,36,46.188,137,13.248,0.03,55.56,53.1,0.19,0.36
2004/5/26,12:40,0,5,36,46.2,137,13.242,0.01,24.85,333.4,0.08,0.16
2004/5/26,12:45,0,5,36,46.206,137,13.254,0.01,24.85,63.4,0.08,0.16
2004/5/26,12:50,0,5,36,46.224,137,13.254,0.02,33.34,0,0.11,0.22
2004/5/26,12:55,0,5,36,46.242,137,13.248,0.02,35.14,341.6,0.12,0.23


�B,Time,Time int.,,Lat.,,Long.,,Distance,,Direction,Speed,
Date(yy/mm/dd),(hh:mm),(hour),(min),(deg),(min),(deg),(min),(miles),(meter),(deg),(m/s),(knots)
2004/5/26,13:15,,,36,46.128,137,13.296,,,,,
2004/5/26,13:20,0,5,36,46.158,137,13.302,0.03,56.66,11.3,0.19,0.37
2004/5/26,13:25,0,5,36,46.224,137,13.314,0.07,124.24,10.3,0.41,0.8
2004/5/26,13:30,0,5,36,46.242,137,13.308,0.02,35.14,341.6,0.12,0.23
2004/5/26,13:35,0,5,36,46.29,137,13.308,0.05,88.9,0,0.3,0.58
2004/5/26,13:40,0,5,36,46.32,137,13.308,0.03,55.56,0,0.19,0.36
2004/5/26,13:50,0,10,36,46.392,137,13.296,0.07,135.18,350.5,0.23,0.44
2004/5/26,13:55,0,5,36,46.416,137,13.284,0.03,49.69,333.4,0.17,0.32
2004/5/26,14:00,0,5,36,46.44,137,13.278,0.02,45.82,346,0.15,0.3
2004/5/26,14:05,0,5,36,46.47,137,13.254,0.04,71.15,321.3,0.24,0.46
2004/5/26,14:10,0,5,36,46.494,137,13.236,0.03,55.56,323.1,0.19,0.36
2004/5/26,14:15,0,5,36,46.524,137,13.218,0.03,64.79,329,0.22,0.42
2004/5/26,14:20,0,5,36,46.548,137,13.206,0.03,49.69,333.4,0.17,0.32
2004/5/26,14:25,0,5,36,46.578,137,13.182,0.04,71.15,321.3,0.24,0.46


�C,Time,Time int.,,Lat.,,Long.,,Distance,,Direction,Speed,
Date(yy/mm/dd),(hh:mm),(hour),(min),(deg),(min),(deg),(min),(miles),(meter),(deg),(m/s),(knots)
2004/5/26,9:20,,,36,46.002,137,13.668,,,,,
2004/5/26,9:25,0,5,36,46.008,137,13.698,0.03,56.66,78.7,0.19,0.37
2004/5/26,9:30,0,5,36,46.014,137,13.722,0.02,45.82,76,0.15,0.3
2004/5/26,9:35,0,5,36,46.014,137,13.728,0.01,11.11,90,0.04,0.07
2004/5/26,9:40,0,5,36,46.038,137,13.746,0.03,55.56,36.9,0.19,0.36
2004/5/26,9:45,0,5,36,46.032,137,13.764,0.02,35.14,108.4,0.12,0.23
2004/5/26,9:50,0,5,36,46.038,137,13.776,0.01,24.85,63.4,0.08,0.16


�D,Time,Time int.,,Lat.,,Long.,,Distance,,Direction,Speed,
Date(yy/mm/dd),(hh:mm),(hour),(min),(deg),(min),(deg),(min),(miles),(meter),(deg),(m/s),(knots)
2004/5/26,10:00,,,36,46.086,137,13.464,,,,,
2004/5/26,10:05,0,5,36,46.146,137,13.488,0.06,119.68,21.8,0.4,0.78
2004/5/26,10:10,0,5,36,46.206,137,13.548,0.08,157.15,45,0.52,1.02
2004/5/26,10:15,0,5,36,46.272,137,13.62,0.1,180.89,47.5,0.6,1.17
2004/5/26,10:20,0,5,36,46.314,137,13.668,0.06,118.12,48.8,0.39,0.77
2004/5/26,10:25,0,5,36,46.35,137,13.764,0.1,189.88,69.4,0.63,1.23
2004/5/26,10:30,0,5,36,46.374,137,13.842,0.08,151.14,72.9,0.5,0.98
2004/5/26,10:35,0,5,36,46.398,137,13.914,0.08,140.56,71.6,0.47,0.91
2004/5/26,10:40,0,5,36,46.41,137,13.998,0.08,157.15,81.9,0.52,1.02
2004/5/26,10:45,0,5,36,46.428,137,14.082,0.09,159.1,77.9,0.53,1.03
2004/5/26,10:50,0,5,36,46.44,137,14.178,0.1,179.18,82.9,0.6,1.16
2004/5/26,10:55,0,5,36,46.446,137,14.244,0.07,122.74,84.8,0.41,0.8
2004/5/26,11:00,0,5,36,46.452,137,14.322,0.08,144.88,85.6,0.48,0.94
2004/5/26,11:05,0,5,36,46.47,137,14.388,0.07,126.7,74.7,0.42,0.82
2004/5/26,11:10,0,5,36,46.482,137,14.466,0.08,146.16,81.3,0.49,0.95
2004/5/26,11:15,0,5,36,46.506,137,14.538,0.08,140.56,71.6,0.47,0.91
2004/5/26,11:20,0,5,36,46.536,137,14.592,0.06,114.41,60.9,0.38,0.74


�E,Time,Time int.,,Lat.,,Long.,,Distance,,Direction,Speed,
Date(yy/mm/dd),(hh:mm),(hour),(min),(deg),(min),(deg),(min),(miles),(meter),(deg),(m/s),(knots)
2004/5/26,11:40,,,36,46.05,137,13.428,,,,,
2004/5/26,11:45,0,5,36,46.134,137,13.482,0.1,184.94,32.7,0.62,1.2
2004/5/26,11:50,0,5,36,46.194,137,13.536,0.08,149.5,42,0.5,0.97
2004/5/26,11:55,0,5,36,46.248,137,13.596,0.08,149.5,48,0.5,0.97
2004/5/26,12:00,0,5,36,46.278,137,13.668,0.08,144.46,67.4,0.48,0.94
2004/5/26,12:05,0,5,36,46.308,137,13.74,0.08,144.46,67.4,0.48,0.94
2004/5/26,12:10,0,5,36,46.338,137,13.824,0.09,165.19,70.3,0.55,1.07
2004/5/26,12:15,0,5,36,46.356,137,13.896,0.07,137.45,76,0.46,0.89
2004/5/26,12:20,0,5,36,46.374,137,13.986,0.09,169.98,78.7,0.57,1.1
2004/5/26,12:25,0,5,36,46.398,137,14.064,0.08,151.14,72.9,0.5,0.98
2004/5/26,12:30,0,5,36,46.398,137,14.13,0.07,122.23,90,0.41,0.79
2004/5/26,12:35,0,5,36,46.41,137,14.184,0.06,102.45,77.5,0.34,0.66
2004/5/26,12:40,0,5,36,46.416,137,14.256,0.07,133.81,85.2,0.45,0.87
2004/5/26,12:45,0,5,36,46.422,137,14.322,0.07,122.74,84.8,0.41,0.8
2004/5/26,12:50,0,5,36,46.422,137,14.388,0.07,122.23,90,0.41,0.79
2004/5/26,12:55,0,5,36,46.428,137,14.454,0.07,122.74,84.8,0.41,0.8


�F,Time,Time int.,,Lat.,,Long.,,Distance,,Direction,Speed,
Date(yy/mm/dd),(hh:mm),(hour),(min),(deg),(min),(deg),(min),(miles),(meter),(deg),(m/s),(knots)
2004/5/26,13:10,,,36,46.05,137,12.846,,,,,
2004/5/26,13:15,0,5,36,46.032,137,12.846,0.02,33.34,180,0.11,0.22
2004/5/26,13:20,0,5,36,46.026,137,12.834,0.01,24.85,243.4,0.08,0.16
2004/5/26,13:25,0,5,36,46.026,137,12.804,0.03,55.56,270,0.19,0.36
2004/5/26,13:30,0,5,36,46.032,137,12.78,0.02,45.82,284,0.15,0.3
2004/5/26,13:35,0,5,36,46.02,137,12.786,0.01,24.85,153.4,0.08,0.16
2004/5/26,13:40,0,5,36,46.02,137,12.756,0.03,55.56,270,0.19,0.36
2004/5/26,13:45,0,5,36,46.026,137,12.75,0.01,15.71,315,0.05,0.1
2004/5/26,13:50,0,5,36,46.02,137,12.744,0.01,15.71,225,0.05,0.1
2004/5/26,13:55,0,5,36,46.038,137,12.726,0.03,47.14,315,0.16,0.31
2004/5/26,14:00,0,5,36,46.02,137,12.714,0.02,40.06,213.7,0.13,0.26
2004/5/26,14:05,0,5,36,46.014,137,12.708,0.01,15.71,225,0.05,0.1
2004/5/26,14:10,0,5,36,46.02,137,12.702,0.01,15.71,315,0.05,0.1
2004/5/26,14:15,0,5,36,46.014,137,12.69,0.01,24.85,243.4,0.08,0.16
2004/5/26,14:20,0,5,36,46.032,137,12.69,0.02,33.34,0,0.11,0.22
2004/5/26,14:25,0,5,36,46.02,137,12.684,0.01,24.85,206.6,0.08,0.16
2004/5/26,14:30,0,5,36,46.02,137,12.672,0.01,22.22,270,0.07,0.14
2004/5/26,14:35,0,5,36,46.026,137,12.666,0.01,15.71,315,0.05,0.1
